Location: ???? ??????? ????
(31.2176°N, 31.6797°E)
Time: 11:46:48
(UTC+00:00)

Cosmos 1340 - Pass Details

Date: 29 October 2020
Orbit: 501 x 504 km, 81.2° (Epoch: 26 November)

Event Time Altitude Azimuth Distance (km) Brightness Sun altitude
Rises 15:50:02 0° 357° (N) 2,607 6.2 -9.8°
Reaches altitude 10° 15:52:12 10° 2° (N) 1,719 5.2 -10.3°
Maximum altitude 15:55:54 56° 81° (E) 606 2.7 -11.1°
Drops below altitude 10° 15:59:35 10° 160° (SSE) 1,708 5.2 -11.8°
Sets 16:01:43 0° 165° (SSE) 2,588 6.2 -12.3°
